EHI
0 0 0 0 0 0 0 0 0 0 0 0 0 2 6 12 15 15 14 17 17 14 11 10 10 10 8 5 4 3 4 5 5 3 2 1 0 0 1 1 1 0 0 0
0 0 0 0 0 0 0 0 0 0 0 1 1 2 6 10 13 14 14 15 15 13 12 12 12 10 8 6 5 4 4 5 4 2 1 1 1 0 0 0 0 0 0 0
0 0 0 0 0 0 0 0 0 0 0 1 1 1 3 6 11 13 13 14 14 12 11 13 12 9 8 7 5 4 3 3 2 1 1 2 1 0 0 0 0 0 0 0
0 0 0 0 0 0 0 0 0 0 0 1 1 0 1 4 8 10 11 13 14 13 11 11 10 8 6 5 4 3 2 1 0 0 1 1 1 0 0 0 0 0 0 0
0 0 0 0 0 0 0 0 0 0 0 0 0 0 0 2 3 5 9 13 14 13 11 10 9 6 4 3 3 2 1 0 0 0 0 0 0 0 0 0 0 0 0 0
0 0 0 0 0 0 0 0 0 0 0 0 0 0 0 0 0 3 7 12 13 13 11 9 8 5 3 3 3 2 1 0 0 0 0 0 0 0 0 0 0 0 0 0
0 0 0 0 0 0 0 0 0 0 0 0 0 0 0 0 0 2 6 10 12 11 10 9 7 4 3 3 3 2 1 0 0 0 0 0 0 0 0 0 0 0 0 0
0 0 0 0 0 0 0 0 0 0 0 0 0 0 0 0 0 1 4 9 10 9 8 8 6 4 3 3 2 1 0 0 0 0 0 0 0 0 0 0 0 0 0 0
0 0 0 0 0 0 0 0 0 0 0 0 0 0 0 0 1 1 3 7 8 7 6 6 5 4 3 1 1 0 0 0 0 0 0 0 0 0 0 0 0 0 0 0
0 0 0 0 0 0 0 0 0 0 0 0 0 0 0 0 1 2 3 4 6 6 5 4 4 3 2 1 0 0 0 0 0 0 0 0 0 0 0 0 0 0 0 0
0 0 0 0 0 0 0 0 0 0 0 0 0 0 0 0 1 1 1 3 5 5 4 3 3 3 1 0 0 0 0 0 0 0 0 0 0 0 0 0 0 0 0 0
0 0 0 0 0 0 0 0 0 0 0 0 0 0 0 0 0 0 1 3 4 4 2 1 3 3 1 0 0 0 0 0 0 0 0 0 0 0 0 0 0 0 0 0
0 0 0 0 0 0 0 0 0 0 0 0 0 0 0 0 0 0 1 2 3 2 0 0 1 2 1 0 0 0 0 0 0 0 0 0 0 0 0 0 0 0 0 0
0 0 0 0 0 0 0 0 0 0 0 0 0 0 0 0 0 0 0 1 1 1 0 0 0 0 0 0 0 0 0 0 0 0 0 0 0 0 0 0 0 0 0 0
0 0 0 0 0 0 0 0 0 0 0 0 0 0 0 0 0 0 0 0 0 0 0 0 0 0 0 0 0 0 0 0 0 0 0 0 0 0 0 0 0 0 0 0
0 0 0 0 0 0 0 0 0 0 0 0 0 0 0 0 0 0 0 0 0 0 0 0 0 0 0 0 0 0 0 0 0 0 0 0 0 0 0 0 0 0 0 0
0 0 0 0 0 0 0 0 0 0 0 0 0 0 0 0 0 0 0 0 0 0 0 0 0 0 0 0 0 0 0 0 0 0 0 0 0 0 0 0 0 0 0 0
0 0 0 0 0 0 0 0 0 0 0 0 0 0 0 0 0 0 0 0 0 0 0 0 0 0 0 0 0 0 0 0 0 0 0 0 0 0 0 0 0 0 0 0
0 0 0 0 0 0 0 0 0 0 0 0 0 0 0 0 0 0 0 0 0 0 1 1 0 0 0 0 1 1 1 0 0 0 1 1 1 1 0 0 0 0 0 0
0 0 0 0 0 0 0 0 0 0 0 0 0 0 0 0 0 0 0 0 0 1 2 2 1 0 0 1 1 2 1 1 1 1 2 2 2 2 1 0 0 0 0 0
0 0 0 0 0 0 0 0 0 0 0 0 0 0 0 0 0 0 0 0 1 2 3 3 2 1 1 2 3 3 2 2 2 3 3 3 3 2 1 0 0 0 0 0
0 0 0 0 0 0 0 0 0 0 0 0 0 0 0 0 0 0 0 0 1 2 2 2 2 1 1 2 3 3 3 2 3 3 2 2 2 1 0 0 0 0 0 0
0 0 0 0 0 0 0 0 0 0 0 0 0 0 0 0 0 0 0 0 0 1 1 1 1 0 0 1 2 2 2 1 2 3 2 1 0 0 0 0 0 0 0 0
0 0 0 0 0 0 0 0 0 0 0 0 0 0 0 0 0 0 0 0 0 0 0 0 0 0 0 0 1 1 1 1 3 3 2 1 0 0 0 0 0 0 0 0
0 0 0 0 0 0 0 0 0 0 0 0 0 1 0 0 0 0 0 0 0 0 0 0 0 0 0 0 0 0 1 2 3 3 3 1 0 0 0 0 0 0 0 0
0 0 0 0 0 0 0 0 0 0 0 0 0 1 0 0 0 0 0 0 0 0 0 0 0 0 0 0 0 1 2 3 3 3 3 2 1 0 0 0 0 0 0 0
Wind_Speed
3 4 3 6 7 5 3 3 5 5 2 2 4 4 6 8 8 9 9 9 9 8 6 6 5 5 6 5 5 5 6 6 6 4 4 4 3 3 3 2 3 4 4 4
3 3 8 5 4 4 3 3 5 4 0 2 1 4 4 7 9 9 10 11 10 7 6 7 6 5 6 7 6 6 7 7 6 4 3 3 4 3 2 2 3 3 4 4
6 6 3 4 3 3 4 5 5 4 1 2 1 4 3 3 4 6 7 8 9 11 11 9 8 7 7 7 7 7 7 7 6 5 4 4 4 3 2 2 2 2 3 4
5 5 3 3 4 5 5 6 5 3 2 2 1 3 5 3 4 8 9 9 10 10 9 9 9 9 8 7 6 6 6 7 6 7 7 7 5 4 3 2 2 3 3 4
6 4 4 5 6 7 6 2 2 2 3 0 0 2 7 2 6 11 12 12 11 11 11 11 10 9 8 7 7 6 7 6 6 6 7 7 5 4 3 3 4 3 3 3
6 3 4 6 3 4 4 5 6 5 4 1 3 4 7 6 9 8 11 12 12 12 11 10 8 7 7 7 7 7 7 6 6 7 7 7 8 7 6 5 4 3 2 2
4 4 3 3 2 1 4 6 4 4 3 5 2 3 10 7 7 8 11 13 13 12 12 11 11 10 9 9 8 7 7 6 6 7 7 7 8 8 8 6 5 4 2 2
3 6 3 3 6 6 4 8 8 5 5 5 2 6 9 4 4 5 8 10 13 13 12 12 12 11 10 10 9 9 8 6 6 7 6 6 7 5 5 5 5 5 3 3
6 6 3 1 1 7 5 4 5 7 2 1 5 6 8 2 1 4 7 10 13 14 13 12 12 11 11 10 10 10 9 7 7 7 7 6 6 6 6 5 5 4 3 3
7 3 4 2 3 4 4 7 5 6 5 3 5 5 6 5 4 5 8 11 13 13 13 12 12 12 11 10 8 8 8 8 7 7 7 6 6 6 6 6 6 5 4 4
3 4 3 2 2 4 3 3 5 4 4 5 3 8 7 8 7 8 10 11 13 14 14 13 12 11 10 9 9 8 8 7 7 7 6 7 6 6 6 6 6 5 4 5
3 5 2 4 3 2 3 5 7 6 4 4 3 9 5 5 5 7 8 9 11 12 12 12 11 10 10 10 10 9 9 9 8 8 7 7 7 6 6 6 6 6 5 5
4 5 2 5 4 2 1 2 4 5 5 5 4 9 4 0 3 5 6 8 9 11 10 10 10 11 12 11 11 10 10 9 8 8 8 7 7 7 7 6 6 5 5 5
5 4 6 7 6 3 2 2 4 5 4 5 8 8 6 4 4 5 6 7 9 11 12 12 11 11 11 11 11 11 10 9 9 9 9 9 8 8 7 7 6 6 6 5
4 3 4 5 5 3 4 5 5 6 7 8 8 8 10 7 7 8 8 8 8 10 12 13 13 12 11 11 10 10 10 10 10 10 10 9 8 7 7 7 6 6 6 6
3 3 2 3 4 4 5 6 7 7 5 6 5 8 7 4 3 4 7 9 10 11 13 14 13 13 13 13 13 12 11 11 11 11 11 9 8 8 8 8 7 6 6 5
3 4 3 3 3 1 5 6 6 5 5 5 8 8 3 1 4 6 7 9 11 12 13 14 15 15 15 14 14 14 13 11 11 11 10 10 10 10 9 9 8 7 7 5
5 4 3 2 1 5 7 2 3 4 4 5 5 4 4 5 4 4 4 7 9 9 11 12 13 12 12 12 11 11 11 12 12 11 11 10 10 10 9 8 8 7 6 6
5 6 4 3 3 5 4 1 1 2 4 3 4 4 3 1 1 2 3 5 8 9 9 11 12 12 11 12 12 12 11 11 11 12 12 12 12 11 10 10 9 7 6 6
3 3 4 3 3 5 5 2 1 2 4 2 2 3 2 1 1 4 3 3 5 5 6 7 8 9 10 11 12 13 12 12 13 14 13 11 11 11 11 11 8 6 6 7
2 1 2 3 3 6 3 3 1 3 4 3 3 3 2 3 4 4 3 2 3 4 4 6 8 10 11 11 12 13 13 14 14 11 10 10 11 11 10 9 7 6 6 6
3 3 3 3 3 6 2 1 2 4 3 4 3 3 3 3 3 3 2 1 1 2 2 5 7 7 8 11 13 13 14 13 9 9 10 10 10 9 8 8 7 7 7 7
4 5 4 5 5 3 2 2 3 2 3 4 4 4 3 2 2 2 2 2 2 2 3 4 6 6 6 10 12 13 11 9 10 10 10 9 10 8 8 9 9 7 6 6
2 1 2 2 4 4 3 3 3 3 3 5 4 4 2 1 2 2 1 1 1 1 2 3 5 6 6 8 9 9 8 10 10 10 9 8 9 8 8 7 7 7 7 7
2 1 1 3 4 5 3 3 3 4 5 5 4 3 1 1 1 1 0 1 1 2 2 3 5 6 6 6 6 6 9 11 10 9 8 8 8 8 7 7 7 8 8 8
2 3 3 4 4 2 4 3 3 4 5 5 4 4 3 2 1 1 2 2 3 3 3 3 4 5 5 6 5 5 8 10 10 8 8 7 6 6 6 6 4 6 7 9
Wind_Direction
122 99 194 207 193 193 194 222 262 264 242 186 212 219 206 187 184 182 179 178 178 177 160 151 154 154 150 155 154 159 151 146 140 135 134 130 128 117 104 111 113 116 119 117
63 241 227 200 189 189 206 246 266 287 183 154 222 256 223 193 197 188 185 185 179 165 159 161 157 161 167 167 165 160 157 155 153 145 136 128 122 112 103 99 100 113 120 120
188 228 195 175 209 212 228 209 227 235 12 57 85 307 244 209 188 187 192 188 179 177 176 175 171 172 172 172 172 166 162 155 153 142 124 110 92 85 88 93 95 100 116 115
227 242 194 206 229 188 247 230 206 196 139 283 121 282 273 214 198 202 199 191 186 181 174 176 177 176 178 176 163 152 154 150 152 149 149 149 145 143 151 139 121 104 107 122
228 206 186 214 225 185 213 206 152 151 144 2 300 207 280 188 220 219 205 196 188 181 176 180 184 180 174 163 154 151 147 148 152 154 153 147 138 128 119 114 115 106 91 104
238 221 200 212 222 171 151 74 55 49 72 281 232 178 270 222 216 211 201 193 184 178 178 178 172 160 156 153 152 149 147 149 152 154 152 150 146 141 137 136 135 123 104 91
294 286 239 174 123 46 110 97 34 356 5 252 232 201 248 243 219 202 193 189 180 175 174 172 167 166 163 162 161 155 153 152 154 154 156 157 155 154 155 155 154 148 139 135
212 282 258 194 180 182 174 147 163 198 223 269 269 236 253 254 230 197 181 175 171 174 175 177 176 171 170 169 166 161 159 155 156 155 156 155 153 153 154 156 154 159 159 156
184 247 294 269 154 144 143 168 164 138 158 256 271 275 296 257 195 166 164 165 174 177 177 178 175 173 172 172 172 168 164 159 161 159 152 151 153 154 154 151 146 148 149 149
162 225 286 299 72 45 134 144 107 124 152 241 283 268 251 249 220 181 177 178 179 176 176 176 176 178 176 173 168 164 163 164 160 156 157 157 156 156 152 149 154 156 155 147
136 169 295 354 177 181 118 114 114 121 154 162 248 269 231 219 206 194 192 187 181 179 179 179 178 177 172 163 163 164 163 157 158 161 157 149 153 153 151 156 163 161 158 158
123 125 242 268 277 196 167 169 148 153 200 174 182 266 276 222 199 187 189 186 183 181 179 177 173 167 167 168 169 171 171 169 169 163 157 156 154 153 156 161 165 161 162 165
130 111 61 342 338 353 141 170 154 132 126 156 177 262 303 359 178 189 186 180 177 176 174 169 167 171 176 176 175 177 178 177 168 160 159 158 159 162 167 168 165 162 161 161
115 124 168 201 224 227 241 206 159 138 157 192 217 248 280 261 220 204 194 184 177 176 176 173 175 179 180 178 178 179 180 175 167 165 166 171 175 175 173 169 167 168 166 166
113 161 213 234 241 228 233 234 201 201 196 195 227 231 254 242 219 207 190 178 175 176 179 181 182 182 180 178 179 179 179 175 171 170 176 183 179 171 167 169 172 171 174 180
113 165 193 264 251 232 246 242 224 225 223 230 251 262 258 258 204 195 189 179 183 188 188 186 185 182 183 184 183 181 181 177 172 178 185 180 172 172 175 177 174 174 180 178
157 152 161 248 277 289 255 231 211 213 214 204 227 246 282 267 207 200 193 189 194 194 191 188 189 188 188 188 184 184 182 173 176 182 182 178 177 180 183 180 176 183 187 183
155 147 162 204 121 229 242 226 195 210 243 231 243 263 257 237 230 215 192 192 201 196 193 193 190 189 188 184 181 177 169 172 180 183 184 181 181 185 181 178 185 190 185 187
160 150 149 157 210 266 287 276 161 186 268 242 241 283 299 298 66 306 217 198 206 202 198 196 191 184 179 178 174 165 169 174 180 187 188 186 184 184 182 187 193 190 184 192
85 119 135 159 193 237 250 279 284 131 270 289 259 277 297 90 116 265 261 214 217 207 196 190 179 170 172 175 165 165 174 178 189 194 193 186 183 184 188 192 189 182 187 200
85 98 159 186 225 261 272 298 68 171 243 311 303 278 258 202 215 259 287 233 212 202 193 175 167 173 178 168 164 173 179 192 197 190 181 178 182 186 187 183 178 177 185 193
176 173 186 166 208 252 319 51 180 233 288 303 301 285 260 248 266 280 275 247 199 187 174 166 166 174 170 166 169 179 193 196 180 171 174 179 180 184 183 176 179 179 183 193
199 199 191 192 218 257 283 235 268 274 286 297 295 291 277 276 285 290 271 237 208 181 167 160 163 163 164 170 175 187 194 169 160 166 176 178 177 181 175 178 181 179 185 197
257 184 182 256 275 289 307 312 328 325 294 293 283 282 281 274 292 298 270 212 180 160 154 143 147 155 168 174 179 185 165 155 159 169 174 173 175 179 178 180 183 186 191 199
251 191 231 264 285 316 325 328 328 340 337 338 343 339 337 20 334 317 58 139 144 117 120 137 149 157 167 162 163 160 153 153 160 165 168 172 178 178 182 187 191 195 201 198
223 197 205 239 244 236 282 314 342 354 346 342 356 7 7 26 8 36 67 71 89 90 89 102 125 134 143 140 142 146 151 156 156 161 166 172 176 176 179 184 195 212 212 212